Location: Franklinton
(36.1018°N, 78.4581°W)
Time: 10:38:34
(UTC-05:00)

Tiangong 2 - Visible Passes

Search period start: 18 February 2019 00:00
Search period end: 28 February 2019 00:00
Orbit: 381 x 390 km, 42.8° (Epoch: 18 February)

Date Brightness Start Highest point End Pass type
(mag) Time Alt. Az. Time Alt. Az. Time Alt. Az.
18 Feb 2.5 19:47:40 10° WNW 19:49:46 38° WNW 19:49:46 38° WNW visible
19 Feb 1.1 18:48:25 10° WNW 18:51:35 63° NNE 18:53:39 19° ESE visible
19 Feb 4.7 20:25:48 10° W 20:25:55 11° W 20:25:55 11° W visible
20 Feb 2.4 19:26:05 10° W 19:29:01 35° SSW 19:29:56 28° S visible
21 Feb 1.3 18:26:41 10° WNW 18:29:50 70° SSW 18:32:58 10° SE visible
22 Feb 3.7 19:04:49 10° W 19:07:06 18° SW 19:09:22 10° S visible
